Temperature
23 24 26 26 26 26 25 23 22 23 22 22 22 22 23 24 24 24 24 24 24 24 24 24 23 23 23 23 22 22 22 21 21 21 20 20 20 20 19 19 18 18 18 17
23 25 25 25 25 25 25 24 23 23 22 22 22 23 23 23 23 23 23 23 23 23 23 23 23 23 23 23 22 22 22 21 21 21 20 20 20 19 19 19 18 18 18 17
21 22 24 23 24 24 23 23 23 22 21 21 21 21 22 23 23 23 22 22 22 22 23 23 23 23 23 23 22 22 22 21 21 21 20 20 20 19 19 19 18 18 18 17
19 22 23 22 23 24 23 22 22 21 21 21 21 22 22 23 23 23 23 22 22 22 23 23 23 22 22 22 22 22 21 21 21 20 20 20 20 19 19 18 18 18 17 17
18 20 21 22 23 23 21 21 21 21 21 21 22 21 21 22 23 23 23 22 22 23 23 23 22 22 22 22 22 21 21 21 21 20 20 20 20 19 19 18 18 17 17 17
18 20 20 21 22 23 21 20 21 21 20 20 21 19 19 22 22 22 22 22 22 22 22 22 22 21 21 21 21 21 21 20 20 20 20 20 19 19 19 18 17 17 17 16
18 19 19 20 22 22 20 19 20 21 21 21 20 20 21 21 21 22 22 22 22 22 22 21 21 21 21 21 21 21 20 20 20 19 19 19 19 18 18 17 17 17 16 16
16 18 19 20 20 19 19 20 20 20 21 21 20 20 20 20 20 20 21 21 21 21 21 21 21 21 20 20 20 20 19 19 19 19 18 18 18 18 17 17 17 16 16 15
16 16 18 19 19 20 20 20 20 20 20 20 20 20 20 20 20 20 20 20 20 20 20 20 20 20 20 20 19 19 19 19 18 18 18 18 17 17 17 16 16 16 16 15
15 16 17 18 19 19 20 19 19 20 20 20 19 19 19 19 19 19 19 19 19 19 19 19 19 19 19 19 19 19 18 18 18 17 17 17 17 17 16 16 16 16 15 15
15 16 17 18 18 18 19 19 19 19 19 19 19 19 19 18 18 18 18 18 18 18 18 18 18 18 19 19 19 18 18 18 17 17 17 16 16 16 16 16 15 15 15 15
14 16 15 17 18 18 18 18 18 18 18 18 18 18 18 18 18 18 18 18 18 18 18 18 18 18 18 18 18 18 17 17 17 17 16 16 16 15 15 15 15 14 14 14
17 17 17 17 18 18 18 18 18 17 18 17 17 17 17 17 17 17 17 17 17 17 17 18 18 18 18 18 17 17 17 16 16 16 16 16 15 15 15 14 14 14 14 14
17 17 16 17 17 17 17 17 17 17 17 17 17 17 17 17 17 17 17 17 17 17 17 17 17 17 17 17 17 16 16 16 16 15 15 15 15 15 14 14 14 13 13 13
16 17 17 17 17 17 17 17 16 16 16 16 16 16 16 16 16 16 16 16 16 16 16 16 16 17 16 16 16 16 15 15 15 15 15 14 14 14 14 13 13 13 13 13
16 16 16 16 16 16 16 16 16 16 15 16 16 16 16 16 16 16 16 16 16 16 16 16 16 16 16 15 15 15 15 15 15 14 14 14 14 13 13 13 13 13 13 13
15 15 15 15 15 15 15 15 15 15 15 15 15 15 15 15 15 15 15 15 15 15 15 15 15 15 15 15 15 15 14 14 14 14 14 14 13 13 13 13 13 13 13 12
15 15 15 15 15 14 14 14 14 14 15 15 15 15 15 14 14 15 15 15 15 15 15 15 15 15 15 14 14 14 14 14 14 14 13 13 13 13 13 13 13 12 12 12
15 15 15 14 14 14 14 14 14 14 14 14 14 14 14 14 14 14 14 14 14 14 14 14 14 14 14 14 14 14 14 14 13 13 13 13 13 13 12 12 12 12 12 12
14 14 14 14 14 14 14 13 13 13 13 13 13 13 13 13 14 14 14 14 14 14 14 14 14 14 14 14 14 14 13 13 13 13 13 13 13 12 12 12 12 12 12 11
14 14 13 13 13 13 13 13 13 13 13 13 13 13 13 13 13 13 13 13 13 13 13 13 13 13 13 13 13 13 13 13 13 13 13 13 12 12 12 12 12 12 11 11
13 13 13 13 13 13 13 13 13 13 13 13 13 13 13 13 13 13 13 13 13 13 13 13 13 13 13 13 13 13 13 13 13 12 12 12 12 12 12 12 12 11 11 11
13 13 12 12 12 12 12 12 12 12 12 12 12 12 13 12 13 13 13 13 13 13 13 13 13 13 13 13 13 13 13 12 12 12 12 12 12 12 12 11 11 11 11 11
12 12 12 12 12 12 12 12 12 12 12 12 12 12 12 12 12 12 12 12 13 13 13 13 13 13 13 13 13 12 12 12 12 12 12 12 12 12 12 11 11 11 11 11
12 12 12 12 12 11 11 12 12 12 12 12 12 12 12 12 12 12 12 12 12 12 12 12 12 12 12 12 12 12 12 12 12 12 12 12 12 11 11 11 11 11 11 10
12 12 12 11 11 11 11 11 11 11 11 11 11 12 12 12 12 12 12 12 12 12 12 12 12 12 12 12 12 12 12 12 11 11 11 11 11 11 11 11 10 10 10 10
11 11 11 11 11 11 11 11 11 11 11 11 11 11 11 11 11 11 11 11 11 11 11 11 11 11 11 11 11 11 11 11 11 11 11 11 11 10 10 10 10 10 10 10
Wind_Speed
3 3 1 1 3 2 2 6 7 7 7 7 7 7 6 6 6 6 6 7 8 8 7 7 6 7 8 9 9 10 10 10 10 8 8 7 6 5 5 5 5 4 4 2
4 4 5 4 4 3 3 4 7 7 2 2 2 4 5 5 6 6 6 6 6 6 7 7 7 7 8 8 9 10 10 9 8 8 8 7 7 6 5 5 4 4 4 3
2 4 5 4 4 2 3 2 6 5 4 3 5 5 6 5 5 4 4 5 6 7 7 8 8 8 9 9 9 9 9 9 9 9 8 8 8 7 6 5 5 4 4 4
2 5 1 5 1 6 7 5 5 6 5 6 7 5 4 4 4 3 3 4 5 5 5 5 5 5 6 8 8 8 8 8 9 9 8 8 7 7 6 5 5 5 5 4
3 2 3 4 3 2 5 3 4 7 6 4 5 5 2 1 3 3 2 3 4 5 5 4 4 5 5 6 7 7 7 7 8 9 9 8 8 8 6 6 5 5 5 5
4 3 4 5 5 1 8 2 2 4 5 4 4 3 3 3 1 1 1 2 2 2 3 4 4 5 6 6 6 7 7 7 6 7 8 9 8 7 5 6 6 5 4 4
4 3 4 5 6 3 4 4 3 1 4 4 2 5 5 2 1 0 2 3 2 3 4 4 4 6 6 5 6 7 6 6 6 6 7 7 6 5 5 5 5 5 4 4
4 3 5 5 4 3 4 2 2 1 2 4 3 2 3 3 1 1 2 3 3 3 2 2 3 5 5 4 5 4 5 5 5 5 6 6 6 5 5 6 6 5 4 3
5 4 3 3 4 2 4 4 3 2 3 5 4 3 3 2 2 2 2 2 2 2 1 0 1 4 5 4 3 4 5 5 4 4 4 4 5 5 5 5 5 5 4 4
3 2 2 5 5 5 6 5 4 3 4 5 4 3 2 1 1 1 1 1 1 1 1 1 2 3 4 4 4 5 5 5 5 5 4 3 4 4 4 4 4 4 4 4
3 1 4 6 5 5 6 7 6 5 4 4 5 3 2 1 1 1 1 1 0 1 2 3 3 2 3 4 5 6 6 5 5 4 4 4 3 2 3 3 5 6 5 5
3 3 2 2 2 3 4 4 4 4 4 4 3 2 2 2 2 1 1 1 1 1 2 2 2 2 2 4 6 6 5 5 4 4 4 4 3 2 3 1 2 5 6 5
4 2 3 2 2 3 3 2 2 1 0 0 1 1 0 1 1 1 1 2 2 2 2 2 2 2 2 4 5 6 6 5 4 4 5 5 4 4 2 2 3 1 3 6
1 3 1 1 1 2 2 3 3 2 1 1 1 1 1 1 1 1 2 4 3 2 1 2 2 2 2 3 4 5 5 5 5 5 5 5 5 4 4 4 1 1 1 3
1 2 2 1 1 2 2 3 3 3 3 2 2 2 1 1 1 2 2 2 0 1 1 2 2 2 2 3 4 5 5 4 5 5 4 4 4 4 3 4 3 2 1 0
1 2 3 3 3 4 4 3 3 3 3 3 3 3 3 2 2 1 1 1 2 2 2 2 2 3 2 3 3 3 4 5 5 5 4 4 4 4 4 4 4 4 4 3
2 2 2 3 3 4 4 4 3 3 3 4 5 4 2 1 0 0 0 1 1 2 2 2 3 3 3 3 3 3 3 4 5 4 4 4 4 5 5 5 4 4 4 5
1 2 2 2 2 2 4 4 3 3 2 3 2 0 0 1 1 1 1 0 1 1 1 2 3 2 3 3 3 3 3 3 3 3 3 4 4 5 5 5 5 5 3 4
1 1 2 2 1 1 2 3 3 3 3 2 1 1 2 2 2 1 1 1 0 2 3 3 3 3 3 3 3 3 3 3 2 2 3 3 3 3 4 4 4 4 4 4
4 3 3 3 3 2 2 3 3 3 3 3 2 1 1 1 1 1 1 1 3 4 3 2 2 2 2 2 3 3 3 3 3 3 3 3 3 3 3 4 4 4 4 4
4 4 4 3 4 3 2 2 2 3 3 2 1 1 1 1 1 1 1 2 4 3 2 2 1 1 2 2 3 3 3 3 3 3 3 3 3 3 3 3 3 4 4 4
4 3 4 4 3 4 3 2 2 2 3 3 2 1 1 1 1 1 2 3 3 2 1 1 1 1 2 2 2 3 3 3 2 2 2 3 3 3 3 3 3 3 3 4
3 3 3 4 3 3 4 4 3 3 3 3 2 2 2 2 2 1 3 3 1 1 1 1 1 1 1 2 2 2 2 2 2 3 3 3 3 3 3 3 3 3 3 3
3 3 4 4 3 3 4 5 4 3 3 2 2 2 2 1 1 1 2 2 2 1 1 2 2 2 2 1 2 2 2 2 2 2 2 2 2 2 2 3 3 3 3 4
3 3 3 2 2 2 3 3 3 3 3 2 2 3 2 1 1 1 1 1 1 1 1 1 2 2 2 1 2 2 2 2 2 2 2 2 1 1 2 2 3 3 3 3
2 2 1 1 1 1 2 1 1 2 2 2 2 2 2 1 0 0 1 1 1 1 1 1 1 1 1 1 1 2 2 1 1 1 1 1 1 1 1 1 2 2 2 2
2 2 2 2 2 2 1 1 1 1 1 1 1 2 1 1 1 1 1 1 1 1 1 1 0 0 0 0 1 1 1 1 1 0 0 1 1 1 1 1 1 1 1 1
Wind_Direction
193 216 46 350 337 5 119 165 166 188 182 206 197 185 173 157 150 141 157 166 169 173 179 179 179 183 176 176 177 174 171 175 184 184 176 169 167 168 163 158 156 149 141 136
16 20 39 16 357 26 63 111 129 127 145 222 169 127 125 132 137 132 148 164 168 176 182 184 182 185 181 179 179 174 176 183 181 177 174 175 175 171 162 158 157 151 154 154
334 345 40 350 321 85 76 88 137 147 186 121 101 116 132 125 126 129 143 164 168 179 187 192 190 186 185 182 174 173 177 179 178 176 179 182 181 173 171 172 167 165 166 160
78 48 205 243 304 99 85 57 93 117 121 121 138 144 124 123 138 146 151 152 178 186 187 193 192 184 176 166 162 166 174 178 180 178 181 179 176 180 181 175 175 181 182 178
109 133 275 301 331 76 106 36 64 109 108 110 131 92 62 144 155 166 180 185 192 186 179 171 170 168 152 160 162 165 179 189 186 181 179 178 182 186 183 177 184 186 182 176
117 144 216 256 313 75 99 55 334 112 128 140 110 105 245 256 162 112 118 161 159 141 131 143 161 154 146 162 169 182 190 192 182 178 178 182 184 183 182 178 183 179 180 182
143 183 250 277 308 50 107 213 268 156 148 137 151 198 208 205 245 134 112 132 135 138 142 161 164 154 155 165 188 197 187 174 171 182 183 182 179 178 175 174 171 173 176 186
147 173 247 305 23 98 184 192 111 80 94 102 113 118 110 105 78 33 58 92 121 124 138 153 149 148 161 186 200 177 163 165 172 181 180 177 172 174 173 171 172 178 179 188
169 200 253 31 100 135 129 94 59 63 76 94 84 70 70 73 64 51 57 60 67 105 116 19 161 156 174 204 186 168 159 168 171 171 168 165 170 176 177 177 179 185 182 188
78 31 35 44 51 48 61 63 52 76 84 88 85 69 61 44 23 5 22 57 62 98 156 240 231 183 183 179 163 160 163 168 169 167 167 162 166 172 177 181 184 187 188 192
87 17 27 22 38 51 47 43 39 34 47 61 64 47 38 359 326 294 292 268 202 193 213 227 221 204 180 168 158 165 169 169 169 168 162 156 155 163 177 192 196 189 194 190
190 215 164 262 324 41 44 25 22 34 21 23 49 35 9 315 283 274 277 274 257 246 219 215 199 208 205 168 158 161 168 172 172 171 159 156 146 97 46 107 176 182 185 181
177 179 177 225 356 17 14 346 349 333 249 315 307 8 60 268 279 271 267 276 252 238 219 199 191 197 195 171 163 165 170 174 172 170 166 165 168 170 165 20 38 120 193 191
108 113 91 293 300 326 339 329 329 326 282 221 249 322 351 322 294 273 248 252 248 232 207 187 184 192 192 167 160 162 168 174 173 181 181 180 182 185 180 173 174 332 319 206
30 126 186 228 346 331 339 354 341 326 312 310 308 316 317 302 282 277 264 241 176 170 188 178 174 210 205 171 166 166 169 176 178 183 183 180 181 182 180 179 177 178 149 258
36 37 34 23 357 328 336 332 309 302 295 290 301 304 294 267 259 274 265 149 146 184 195 185 204 219 199 168 166 169 174 181 178 180 183 183 185 186 187 186 189 192 195 196
65 345 334 328 323 324 313 295 281 287 293 295 279 263 266 278 7 136 202 164 164 201 199 202 222 223 196 175 172 179 176 177 180 183 190 193 191 190 190 192 199 209 215 201
201 245 258 266 275 312 315 322 323 310 301 293 296 257 186 205 222 237 238 96 45 5 278 241 229 211 198 188 181 176 173 174 178 186 187 188 190 190 193 195 196 199 210 205
24 4 343 332 302 282 286 302 306 314 319 321 320 215 211 220 218 218 174 129 165 256 265 252 228 201 195 187 169 164 163 161 161 171 173 170 181 187 187 190 195 203 204 203
4 2 357 346 340 330 313 317 324 326 318 319 314 277 244 227 189 182 187 246 254 244 238 240 221 210 206 187 162 154 157 161 164 168 167 172 183 192 191 195 201 205 206 208
346 349 344 328 324 328 323 323 331 325 321 317 309 281 266 265 228 191 189 283 285 259 230 230 229 230 209 189 170 162 161 164 170 177 182 190 195 200 203 207 214 217 215 216
336 339 336 330 330 326 322 327 328 316 309 305 294 265 239 264 280 287 259 247 264 258 221 214 229 209 188 170 161 163 166 171 176 177 183 191 197 204 213 218 222 224 220 220
314 314 322 309 294 300 319 327 322 311 299 284 262 245 235 236 230 226 280 282 267 228 200 205 222 207 162 144 154 166 170 177 192 200 202 202 208 212 216 223 229 232 227 228
316 316 306 302 320 339 330 320 323 324 319 301 261 236 220 242 301 281 237 263 272 252 221 208 202 203 183 175 177 180 185 189 197 201 199 201 211 219 223 223 227 236 235 233
306 295 291 304 325 316 309 321 342 346 348 336 314 302 286 227 218 266 272 240 225 236 270 252 212 211 206 204 198 195 193 194 194 193 185 178 192 218 239 243 242 239 234 232
312 309 308 288 257 280 303 334 345 343 348 339 329 327 336 341 20 66 13 336 319 289 270 259 208 220 217 216 208 182 181 180 157 135 147 158 178 196 237 257 258 253 247 241
1 8 14 6 342 329 328 335 345 329 308 296 308 321 338 10 30 35 32 17 15 23 6 23 75 174 241 258 192 165 149 142 133 116 176 210 219 223 231 235 252 253 250 265
Height
1493 1489 1487 1488 1488 1487 1494 1501 1511 1511 1509 1504 1500 1500 1501 1503 1504 1505 1507 1509 1510 1512 1515 1517 1519 1521 1522 1524 1526 1528 1530 1531 1532 1534 1535 1536 1536 1536 1536 1536 1536 1536 1536 1536
1495 1487 1487 1490 1488 1487 1490 1493 1499 1502 1505 1498 1499 1499 1501 1502 1503 1505 1507 1508 1509 1511 1512 1514 1516 1518 1519 1521 1523 1525 1527 1528 1530 1532 1533 1533 1534 1534 1534 1534 1534 1534 1534 1534
1507 1495 1492 1502 1494 1491 1493 1493 1495 1504 1503 1497 1499 1499 1499 1500 1502 1504 1506 1508 1508 1510 1511 1512 1513 1514 1516 1518 1520 1522 1523 1525 1527 1528 1529 1530 1531 1532 1532 1532 1532 1532 1532 1532
1510 1505 1516 1505 1488 1487 1491 1493 1492 1494 1496 1496 1497 1499 1500 1501 1502 1503 1504 1506 1507 1508 1508 1509 1510 1512 1513 1515 1517 1518 1520 1521 1523 1525 1526 1527 1528 1528 1529 1529 1529 1529 1529 1529
1515 1517 1511 1497 1489 1489 1494 1500 1494 1495 1496 1496 1497 1498 1500 1502 1502 1503 1504 1504 1505 1505 1506 1507 1508 1509 1511 1512 1513 1515 1517 1518 1519 1521 1522 1523 1524 1525 1525 1526 1526 1526 1526 1526
1512 1515 1518 1502 1488 1485 1490 1505 1497 1494 1495 1496 1496 1503 1502 1500 1501 1502 1502 1503 1503 1503 1504 1504 1506 1508 1509 1509 1511 1512 1513 1514 1516 1517 1518 1519 1520 1521 1522 1522 1523 1523 1523 1523
1511 1514 1508 1494 1487 1485 1504 1507 1496 1494 1494 1494 1496 1498 1498 1498 1498 1498 1499 1500 1500 1501 1502 1502 1503 1505 1505 1506 1507 1509 1511 1512 1512 1514 1515 1515 1516 1518 1518 1519 1519 1519 1519 1520
1512 1516 1513 1491 1489 1494 1498 1494 1494 1494 1494 1494 1495 1495 1495 1496 1497 1497 1497 1497 1497 1498 1498 1499 1500 1501 1502 1503 1504 1506 1507 1508 1509 1510 1511 1512 1513 1513 1514 1515 1515 1515 1515 1516
1504 1507 1498 1492 1492 1493 1492 1493 1494 1494 1494 1494 1494 1494 1495 1495 1496 1497 1496 1495 1496 1496 1496 1497 1498 1499 1499 1500 1501 1502 1503 1505 1506 1506 1507 1508 1509 1510 1511 1511 1511 1511 1512 1512
1500 1499 1496 1494 1493 1493 1493 1493 1494 1494 1493 1493 1493 1493 1494 1494 1494 1494 1494 1494 1494 1494 1494 1494 1496 1496 1497 1497 1498 1499 1500 1501 1502 1503 1504 1504 1505 1506 1506 1507 1507 1508 1508 1508
1500 1498 1496 1496 1496 1495 1494 1495 1494 1494 1494 1493 1493 1493 1493 1493 1493 1493 1493 1493 1492 1491 1491 1492 1493 1494 1494 1495 1495 1496 1496 1497 1498 1499 1500 1500 1501 1502 1503 1504 1505 1505 1505 1506
1501 1498 1498 1497 1496 1495 1494 1494 1494 1493 1493 1493 1492 1491 1491 1491 1490 1490 1490 1490 1489 1489 1488 1489 1489 1490 1490 1491 1492 1492 1492 1493 1494 1495 1495 1496 1497 1498 1499 1500 1501 1502 1502 1503
1495 1495 1496 1495 1495 1494 1494 1494 1493 1493 1492 1492 1490 1489 1488 1488 1487 1487 1487 1487 1487 1486 1485 1485 1486 1486 1487 1488 1488 1489 1489 1490 1491 1491 1492 1492 1493 1494 1495 1496 1497 1498 1498 1499
1493 1494 1494 1494 1493 1493 1493 1492 1491 1491 1490 1488 1487 1487 1485 1484 1484 1484 1483 1483 1483 1483 1483 1483 1483 1483 1484 1484 1485 1486 1486 1487 1488 1488 1489 1489 1490 1491 1492 1492 1493 1494 1495 1496
1492 1492 1492 1492 1491 1491 1490 1489 1488 1487 1486 1485 1484 1484 1482 1481 1480 1481 1480 1480 1480 1480 1480 1480 1480 1480 1481 1481 1482 1482 1483 1483 1484 1485 1486 1487 1488 1489 1489 1490 1490 1491 1492 1493
1491 1491 1490 1490 1489 1489 1487 1486 1485 1483 1483 1481 1480 1480 1479 1479 1479 1478 1478 1477 1477 1477 1477 1477 1477 1478 1478 1479 1479 1479 1479 1480 1482 1483 1483 1484 1485 1486 1486 1487 1488 1488 1488 1489
1490 1489 1488 1488 1487 1486 1485 1484 1482 1480 1478 1477 1475 1475 1476 1476 1476 1476 1475 1475 1474 1474 1474 1474 1475 1475 1475 1476 1476 1476 1476 1478 1479 1480 1480 1481 1482 1483 1484 1484 1485 1486 1486 1486
1488 1487 1487 1486 1484 1483 1482 1480 1479 1477 1475 1474 1471 1471 1472 1473 1473 1472 1472 1471 1471 1471 1471 1472 1472 1472 1473 1473 1473 1474 1474 1475 1476 1477 1478 1479 1479 1480 1481 1481 1482 1483 1483 1484
1486 1486 1485 1484 1482 1481 1479 1478 1476 1475 1473 1472 1470 1469 1469 1470 1470 1470 1470 1469 1469 1468 1469 1469 1469 1470 1470 1471 1471 1472 1472 1473 1473 1474 1475 1476 1477 1477 1478 1478 1479 1479 1480 1480
1484 1484 1483 1482 1480 1478 1477 1475 1474 1473 1472 1470 1467 1467 1467 1467 1467 1467 1467 1467 1466 1466 1466 1467 1467 1468 1468 1469 1470 1470 1471 1471 1472 1473 1474 1474 1474 1475 1475 1476 1476 1476 1477 1477
1483 1482 1480 1479 1478 1476 1475 1474 1472 1471 1470 1468 1467 1466 1466 1466 1466 1466 1465 1464 1464 1464 1464 1465 1465 1466 1466 1467 1468 1469 1469 1470 1471 1471 1472 1472 1473 1473 1473 1473 1473 1473 1473 1473
1480 1479 1478 1476 1475 1474 1473 1472 1471 1470 1468 1467 1466 1466 1465 1465 1465 1464 1464 1463 1463 1463 1463 1463 1464 1464 1465 1466 1467 1467 1468 1468 1469 1470 1470 1470 1470 1470 1470 1470 1470 1470 1470 1470
1478 1477 1476 1475 1473 1472 1471 1470 1469 1468 1467 1466 1465 1465 1464 1464 1464 1463 1462 1462 1462 1462 1462 1462 1463 1463 1464 1464 1465 1466 1466 1466 1467 1467 1468 1467 1467 1467 1467 1467 1467 1467 1466 1466
1476 1475 1474 1473 1471 1470 1469 1468 1466 1465 1464 1464 1464 1464 1463 1463 1462 1462 1461 1461 1461 1461 1461 1461 1462 1462 1463 1463 1463 1463 1464 1464 1465 1465 1465 1465 1464 1464 1464 1464 1464 1463 1463 1462
1475 1474 1473 1472 1470 1469 1468 1466 1465 1464 1463 1463 1463 1463 1462 1462 1461 1460 1460 1460 1459 1459 1459 1459 1460 1461 1461 1461 1461 1461 1461 1462 1462 1462 1462 1462 1461 1461 1461 1460 1460 1460 1459 1458
1474 1473 1472 1471 1470 1469 1467 1466 1464 1463 1463 1462 1462 1462 1461 1461 1460 1459 1459 1458 1458 1458 1458 1458 1459 1460 1459 1459 1459 1459 1460 1460 1460 1460 1459 1459 1459 1458 1458 1457 1457 1456 1455 1454
1474 1473 1472 1471 1470 1468 1467 1466 1464 1464 1463 1462 1461 1461 1461 1460 1459 1459 1458 1458 1458 1458 1458 1458 1458 1458 1458 1458 1457 1458 1458 1458 1458 1458 1458 1457 1456 1456 1455 1454 1453 1452 1451 1450